West Paducah, KY

12:23 PM CST on January 17, 2017 (GMT -0600)
Barkley Regional

Weather History for KPAH - July, 2012

Change the Weather History Date:

Friday, July 20, 2012

  Actual Average Record
Temperature  
Mean Temperature 85 °F 79 °F  
Max Temperature 97 °F 89 °F 99 °F (1983)
Min Temperature 73 °F 69 °F 56 °F (1947)
Degree Days  
Heating Degree Days 0 0  
Month to date heating degree days 0 0  
Since 1 June heating degree days 7 4  
Since 1 July heating degree days 0 0  
Cooling Degree Days 20 14  
Month to date cooling degree days 401 280  
Year to date cooling degree days 1140 772  
Since 1 June cooling degree days 757 600  
Growing Degree Days 35 (Base 50)    
Moisture  
Dew Point 69 °F    
Average Humidity 63    
Maximum Humidity 87    
Minimum Humidity 39    
Precipitation  
Precipitation 0.00 in 0.13 in 1.89 in (1975)
Month to date precipitation 1.05 2.95  
Year to date precipitation 12.64 28.23  
Snow  
Snow 0.00 in 0.00 in 0.00 in (2002)
Month to date snowfall 0.0 0.0  
Since 1 June snowfall 0.0 0.0  
Since 1 July snowfall 0.0 0.0  
Snow Depth 0.00 in    
Sea Level Pressure  
Sea Level Pressure 29.91 in    
Wind  
Wind Speed 7 mph (NNE)    
Max Wind Speed 17 mph    
Max Gust Speed 22 mph    
Visibility 10 miles    
Events      
T = Trace of Precipitation, MM = Missing Value Source: NWS Daily Summary

Daily Weather History Graph

Daily Weather History Graph

Search for Another Location

Airport or City:

Trip Planner

Search our weather history database for the weather conditions in past years. The results will help you decide how hot, cold, wet, or windy it might be!

Date:

Astronomy

Jul. 20, 2012 Rise Set
Actual Time 5:51 AM CDT 8:11 PM CDT
Civil Twilight 5:21 AM CDT 8:41 PM CDT
Nautical Twilight 4:44 AM CDT 9:17 PM CDT
Astronomical Twilight 4:04 AM CDT 9:57 PM CDT
Moon 7:24 AM CDT (7/20) 8:55 PM CDT (7/20)
Length of Visible Light 15h 19m
Length of Day
14h 20m
Waxing Crescent, 3% of the Moon is Illuminated
Jul 20
Waxing Crescent
Jul 26
First Quarter
Aug 1
Full
Aug 9
Last Quarter
Aug 17
New

Hourly Weather History & Observations

Time (CDT) Temp. Heat Index Dew Point Humidity Pressure Visibility Wind Dir Wind Speed Gust Speed Precip Events Conditions
12:53 AM 82.0 °F 86.3 °F 71.1 °F 69% 29.90 in 10.0 mi West 4.6 mph - N/A   Scattered Clouds
1:53 AM 80.1 °F 83.6 °F 71.1 °F 74% 29.88 in 10.0 mi Calm Calm - N/A   Clear
2:53 AM 78.1 °F - 70.0 °F 76% 29.86 in 10.0 mi SW 5.8 mph - N/A   Clear
3:53 AM 78.1 °F - 69.1 °F 74% 29.86 in 10.0 mi Calm Calm - N/A   Clear
4:53 AM 75.0 °F - 69.1 °F 82% 29.88 in 10.0 mi Calm Calm - N/A   Clear
5:53 AM 73.0 °F - 70.0 °F 90% 29.88 in 10.0 mi Calm Calm - N/A   Clear
6:53 AM 77.0 °F - 71.1 °F 82% 29.88 in 10.0 mi Calm Calm - N/A   Clear
7:53 AM 82.0 °F 86.3 °F 71.1 °F 69% 29.89 in 10.0 mi North 3.5 mph - N/A   Clear
8:53 AM 84.9 °F 90.7 °F 72.0 °F 65% 29.91 in 10.0 mi NNE 10.4 mph - N/A   Clear
9:53 AM 89.1 °F 96.0 °F 72.0 °F 57% 29.92 in 10.0 mi NNE 5.8 mph - N/A   Clear
10:53 AM 90.0 °F 97.9 °F 73.0 °F 57% 29.92 in 10.0 mi NE 8.1 mph - N/A   Overcast
11:53 AM 93.9 °F 100.8 °F 71.1 °F 47% 29.92 in 10.0 mi NNE 8.1 mph 17.3 mph N/A   Scattered Clouds
12:53 PM 90.0 °F 94.5 °F 69.1 °F 50% 29.92 in 10.0 mi North 10.4 mph 18.4 mph N/A   Scattered Clouds
1:53 PM 95.0 °F 99.5 °F 68.0 °F 41% 29.91 in 10.0 mi NE 9.2 mph 18.4 mph N/A   Scattered Clouds
2:53 PM 93.9 °F 98.6 °F 68.0 °F 43% 29.91 in 10.0 mi NNE 12.7 mph - N/A   Scattered Clouds
3:53 PM 95.0 °F 99.0 °F 66.9 °F 40% 29.90 in 10.0 mi NNE 11.5 mph 17.3 mph N/A   Partly Cloudy
4:53 PM 95.0 °F 97.9 °F 66.0 °F 38% 29.89 in 10.0 mi NNE 12.7 mph 20.7 mph N/A   Partly Cloudy
5:53 PM 91.9 °F 94.5 °F 66.0 °F 42% 29.90 in 10.0 mi North 13.8 mph - N/A   Clear
6:53 PM 89.1 °F 91.3 °F 66.0 °F 46% 29.91 in 10.0 mi NNE 15.0 mph - N/A   Clear
7:53 PM 86.0 °F 88.2 °F 66.0 °F 51% 29.92 in 10.0 mi NE 8.1 mph - N/A   Clear
8:53 PM 82.9 °F 84.6 °F 64.9 °F 54% 29.94 in 10.0 mi NNE 6.9 mph - N/A   Clear
9:53 PM 81.0 °F 83.0 °F 66.0 °F 60% 29.96 in 10.0 mi NE 6.9 mph - N/A   Clear
10:53 PM 79.0 °F - 66.9 °F 66% 29.96 in 10.0 mi NNE 4.6 mph - N/A   Clear
11:53 PM 77.0 °F - 68.0 °F 74% 29.99 in 10.0 mi NNE 5.8 mph - N/A   Clear